Location: Albany
(35.0000°S, 118.0000°E)
Time: 09:27:19
(UTC-04:00)

Amateur Radio Satellites - All Passes

Search period start: 16 September 2014 08:57
Search period end: 17 September 2014 08:57
Location: Albany, 35.0000°S, 118.0000°E

Satellite Date Start Highest point End Downlink Frequencies (MHz)
Time Altitude Azimuth
SO-50 16 Sep 09:01:26 09:04:43 20° 290° (WNW) 09:07:58 436.795 FM
ISS 16 Sep 09:01:40 09:03:29 14° 153° (SSE) 09:05:17 145.800 FM
MaSat-1 16 Sep 09:08:07 09:10:01 20° 242° (WSW) 09:11:57 437.345 MHz
RS-15 16 Sep 09:08:34 09:14:01 14° 183° (S) 09:19:27 29.354 - 29.394 USB, Beacon 29.352 USB
UOSAT-12 16 Sep 09:19:14 09:23:29 44° 123° (ESE) 09:27:44 437.025 FM, 437.400 FM
FUNcube-1 16 Sep 09:58:59 10:02:50 34° 82° (E) 10:06:39 145.950 - 145.970 MHz USB
Oscar 11 16 Sep 10:19:07 10:23:20 47° 254° (WSW) 10:27:31 145.825 FM, Beacon 2401.500 USB
Oscar 10/S400 16 Sep 10:31:06 13:26:44 24° 96° (E) 15:00:21 145.825 - 145.975 CW/USB, Beacon 145.810 USB
UKube-1 16 Sep 10:32:32 10:36:07 25° 249° (WSW) 10:39:40 145.840 MHz, 145.915 MHz
HO-68 16 Sep 10:36:57 10:42:48 28° 243° (WSW) 10:48:36 435.675 MHz FM
ISS 16 Sep 10:37:12 10:40:37 85° 316° (NW) 10:43:59 145.800 FM
UOSAT-12 16 Sep 11:00:38 11:03:13 15° 289° (WNW) 11:05:48 437.025 FM, 437.400 FM
PCSat 16 Sep 11:04:23 11:07:50 17° 76° (ENE) 11:11:18 145.825 MHz
RS-15 16 Sep 11:23:53 11:33:18 25° 146° (SE) 11:42:23 29.354 - 29.394 USB, Beacon 29.352 USB
FUNcube-1 16 Sep 11:36:17 11:38:56 16° 248° (WSW) 11:41:34 145.950 - 145.970 MHz USB
Uribyol 2 16 Sep 12:03:44 12:04:49 11° 119° (ESE) 12:05:55 436.500 FM
AO-Echo 16 Sep 12:04:28 12:06:32 12° 118° (ESE) 12:08:38 ?
JAS-1B 16 Sep 12:11:51 12:16:47 22° 122° (ESE) 12:22:20 435.800 - 435.900 CW/SSB
Sapphire 16 Sep 12:17:50 12:23:15 81° 65° (ENE) 12:28:43 437.095 MHz 1200 baud AX-25 AFSK
Oscar 19 16 Sep 12:19:47 12:24:26 36° 110° (ESE) 12:29:07 437.125 CW, 437.150 USB
AO-27 16 Sep 12:29:37 12:33:19 20° 114° (ESE) 12:37:01 436.795 MHz FM
PCSat 16 Sep 12:45:28 12:50:45 53° 241° (WSW) 12:56:05 145.825 MHz
Oscar 16 16 Sep 12:57:21 13:02:30 89° 104° (ESE) 13:07:43 437.025 USB, Beacon 2401.1428
Gurwin Techsat 1B 16 Sep 13:01:49 13:05:21 18° 115° (ESE) 13:08:54 435.225 FM
ITAMSAT 1 16 Sep 13:33:04 13:38:19 81° 104° (ESE) 13:43:38 435.822 SSB
RS-15 16 Sep 13:35:56 13:48:06 79° 120° (ESE) 13:59:36 29.354 - 29.394 USB, Beacon 29.352 USB
Uribyol 2 16 Sep 13:38:15 13:43:30 85° 283° (WNW) 13:48:49 436.500 FM
AO-Echo 16 Sep 13:39:20 13:44:32 76° 282° (WNW) 13:49:55 ?
TMSAT-1 16 Sep 13:39:58 13:44:35 31° 111° (ESE) 13:49:13 436.925 FM
Oscar 19 16 Sep 13:59:48 14:03:48 23° 275° (W) 14:07:51 437.125 CW, 437.150 USB
JAS-1B 16 Sep 14:00:13 14:06:29 61° 280° (W) 14:14:05 435.800 - 435.900 CW/SSB
Sapphire 16 Sep 14:04:31 14:07:19 14° 228° (SW) 14:10:08 437.095 MHz 1200 baud AX-25 AFSK
AO-27 16 Sep 14:07:24 14:12:25 46° 279° (W) 14:17:31 436.795 MHz FM
Gurwin Techsat 1B 16 Sep 14:39:41 14:44:51 51° 280° (W) 14:50:05 435.225 FM
AO-7 16 Sep 14:44:10 14:51:48 42° 116° (ESE) 14:59:30 29.400 - 29.500 MHz
Uosat F 16 Sep 14:47:49 14:51:45 23° 113° (ESE) 14:55:44 435.120 FM
JAS-2 16 Sep 15:15:13 15:17:13 11° 125° (SE) 15:19:13 435.800 - 435.900 CW/SSB, 435.910 FM
TMSAT-1 16 Sep 15:19:50 15:24:24 29° 276° (W) 15:29:01 436.925 FM
OPAL 16 Sep 15:41:05 15:43:21 13° 86° (E) 15:45:37 ?
RS-15 16 Sep 15:50:25 15:59:06 25° 281° (W) 16:07:32 29.354 - 29.394 USB, Beacon 29.352 USB
Uosat F 16 Sep 16:25:40 16:30:17 35° 278° (W) 16:34:58 435.120 FM
AO-7 16 Sep 16:36:51 16:44:28 40° 280° (W) 16:52:14 29.400 - 29.500 MHz
Hamsat 16 Sep 16:38:12 16:41:44 27° 109° (ESE) 16:45:18 145.90 MHz
Saudisat 1A 16 Sep 16:42:20 16:46:19 35° 67° (ENE) 16:50:21 436.775 MHz
JAS-2 16 Sep 16:53:13 17:00:36 62° 108° (ESE) 17:08:24 435.800 - 435.900 CW/SSB, 435.910 FM
OPAL 16 Sep 17:17:34 17:22:33 61° 252° (WSW) 17:27:33 ?
MaSat-1 16 Sep 17:24:58 17:27:23 16° 119° (ESE) 17:29:58 437.345 MHz
STRAND 1 16 Sep 17:54:03 17:57:30 18° 86° (E) 18:00:54 ?
Hamsat 16 Sep 18:14:30 18:17:39 20° 275° (W) 18:20:49 145.90 MHz
Saudisat 1A 16 Sep 18:22:33 18:25:58 21° 231° (SW) 18:29:24 436.775 MHz
JAS-2 16 Sep 18:40:08 18:45:59 24° 271° (W) 18:52:08 435.800 - 435.900 CW/SSB, 435.910 FM
KITSAT 1 16 Sep 18:49:15 18:56:58 52° 69° (ENE) 19:04:45 435.175 FM
SO-67 16 Sep 18:55:23 18:58:42 43° 279° (W) 19:02:05 435.3500 MHz FM
MaSat-1 16 Sep 19:00:37 19:04:05 33° 290° (WNW) 19:07:59 437.345 MHz
HO-68 16 Sep 19:14:15 19:20:09 28° 117° (ESE) 19:26:05 435.675 MHz FM
STRAND 1 16 Sep 19:31:56 19:36:52 45° 252° (WSW) 19:41:44 ?
UKube-1 16 Sep 19:49:48 19:52:23 15° 114° (ESE) 19:54:59 145.840 MHz, 145.915 MHz
KITSAT 1 16 Sep 20:45:27 20:52:36 34° 231° (SW) 20:59:49 435.175 FM
FUNcube-1 16 Sep 20:52:49 20:56:04 20° 111° (ESE) 20:59:18 145.950 - 145.970 MHz USB
HO-68 16 Sep 21:00:30 21:07:26 51° 281° (W) 21:14:28 435.675 MHz FM
Sapphire 16 Sep 21:09:31 21:14:23 32° 124° (ESE) 21:19:13 437.095 MHz 1200 baud AX-25 AFSK
Oscar 11 16 Sep 21:10:25 21:14:45 88° 103° (ESE) 21:19:09 145.825 FM, Beacon 2401.500 USB
UKube-1 16 Sep 21:24:02 21:28:11 42° 279° (W) 21:32:24 145.840 MHz, 145.915 MHz
SO-50 16 Sep 21:32:12 21:36:11 26° 69° (ENE) 21:40:07 436.795 FM
PCSat 16 Sep 21:36:34 21:41:58 61° 118° (ESE) 21:47:18 145.825 MHz
FUNcube-1 16 Sep 22:28:18 22:32:14 30° 277° (W) 22:36:09 145.950 - 145.970 MHz USB
Sapphire 16 Sep 22:53:02 22:57:41 30° 288° (WNW) 23:02:18 437.095 MHz 1200 baud AX-25 AFSK
SO-50 16 Sep 23:12:15 23:16:36 32° 234° (SW) 23:20:54 436.795 FM
PCSat 16 Sep 23:21:50 23:24:47 15° 284° (WNW) 23:27:43 145.825 MHz
UOSAT-12 16 Sep 23:27:49 23:31:40 28° 68° (ENE) 23:35:29 437.025 FM, 437.400 FM
Oscar 19 17 Sep 00:35:45 00:39:00 17° 87° (E) 00:42:13 437.125 CW, 437.150 USB
UOSAT-12 17 Sep 01:07:59 01:11:43 26° 233° (SW) 01:15:27 437.025 FM, 437.400 FM
PANSAT 17 Sep 01:09:11 01:10:31 12° 22° (NNE) 01:11:52 not established
Oscar 16 17 Sep 01:12:40 01:17:35 41° 81° (E) 01:22:27 437.025 USB, Beacon 2401.1428
Saudisat 1A 17 Sep 01:13:17 01:15:29 13° 133° (SE) 01:17:41 436.775 MHz
ISS 17 Sep 01:41:54 01:44:01 16° 52° (NE) 01:46:09 145.800 FM
JAS-1B 17 Sep 01:47:06 01:56:47 58° 80° (E) 02:06:19 435.800 - 435.900 CW/SSB
ITAMSAT 1 17 Sep 01:49:46 01:54:38 38° 82° (E) 01:59:25 435.822 SSB
RS-15 17 Sep 01:50:01 01:54:43 13° 84° (E) 01:59:26 29.354 - 29.394 USB, Beacon 29.352 USB
AO-Echo 17 Sep 01:50:28 01:55:32 47° 81° (E) 02:00:23 ?
Uribyol 2 17 Sep 01:54:40 01:59:41 45° 81° (E) 02:04:37 436.500 FM
TMSAT-1 17 Sep 02:00:14 02:03:20 16° 88° (E) 02:06:25 436.925 FM
Oscar 19 17 Sep 02:13:32 02:18:33 50° 253° (WSW) 02:23:32 437.125 CW, 437.150 USB
AO-27 17 Sep 02:23:38 02:28:56 85° 77° (ENE) 02:34:08 436.795 MHz FM
PANSAT 17 Sep 02:46:52 02:50:08 25° 10° (N) 02:53:24 not established
KITSAT 1 17 Sep 02:47:23 02:52:10 16° 141° (SE) 02:56:56 435.175 FM
Saudisat 1A 17 Sep 02:51:05 02:55:29 64° 297° (WNW) 02:59:50 436.775 MHz
AO-7 17 Sep 02:51:54 02:56:02 14° 89° (E) 03:00:08 29.400 - 29.500 MHz
OPAL 17 Sep 02:52:38 02:55:54 18° 117° (ESE) 02:59:09 ?
Oscar 16 17 Sep 02:52:48 02:56:36 21° 246° (WSW) 03:00:22 437.025 USB, Beacon 2401.1428
Gurwin Techsat 1B 17 Sep 02:59:09 03:04:33 86° 76° (ENE) 03:09:53 435.225 FM
ISS 17 Sep 03:17:15 03:20:28 41° 218° (SW) 03:23:43 145.800 FM
ITAMSAT 1 17 Sep 03:29:48 03:33:50 23° 247° (WSW) 03:37:50 435.822 SSB
AO-Echo 17 Sep 03:30:19 03:33:50 18° 245° (WSW) 03:37:16 ?
Uribyol 2 17 Sep 03:35:08 03:38:45 19° 246° (WSW) 03:42:21 436.500 FM
JAS-1B 17 Sep 03:38:08 03:46:40 37° 244° (WSW) 03:55:18 435.800 - 435.900 CW/SSB
TMSAT-1 17 Sep 03:38:19 03:43:33 55° 253° (WSW) 03:48:43 436.925 FM
RS-15 17 Sep 03:53:00 04:04:53 72° 66° (ENE) 04:17:07 29.354 - 29.394 USB, Beacon 29.352 USB
AO-27 17 Sep 04:06:44 04:07:38 10° 241° (WSW) 04:08:32 436.795 MHz FM
PANSAT 17 Sep 04:26:26 04:29:55 30° 357° (N) 04:33:23 not established
OPAL 17 Sep 04:29:32 04:34:22 48° 282° (WNW) 04:39:13 ?
Uosat F 17 Sep 04:36:15 04:41:22 88° 256° (WSW) 04:46:25 435.120 FM
KITSAT 1 17 Sep 04:40:56 04:49:05 71° 119° (ESE) 04:57:10 435.175 FM
AO-7 17 Sep 04:41:14 04:49:44 87° 73° (ENE) 04:58:06 29.400 - 29.500 MHz
Gurwin Techsat 1B 17 Sep 04:42:33 04:43:42 11° 241° (WSW) 04:44:52 435.225 FM
STRAND 1 17 Sep 05:06:57 05:10:37 20° 114° (ESE) 05:14:17 ?
JAS-2 17 Sep 05:52:45 05:59:50 72° 79° (ENE) 06:05:58 435.800 - 435.900 CW/SSB, 435.910 FM
Hamsat 17 Sep 06:02:05 06:06:27 88° 78° (ENE) 06:10:49 145.90 MHz
PANSAT 17 Sep 06:06:48 06:09:38 19° 345° (NNW) 06:12:29 not established
RS-15 17 Sep 06:07:38 06:18:24 35° 224° (SW) 06:29:23 29.354 - 29.394 USB, Beacon 29.352 USB
SO-50 17 Sep 06:08:55 06:10:06 11° 136° (SE) 06:11:16 436.795 FM
SO-67 17 Sep 06:23:12 06:25:23 15° 86° (E) 06:27:32 435.3500 MHz FM
AO-7 17 Sep 06:35:58 06:41:24 19° 235° (SW) 06:46:50 29.400 - 29.500 MHz
KITSAT 1 17 Sep 06:37:58 06:43:40 21° 283° (WNW) 06:49:20 435.175 FM
STRAND 1 17 Sep 06:44:30 06:49:25 44° 279° (W) 06:54:24 ?
JAS-2 17 Sep 07:39:25 07:43:53 18° 239° (WSW) 07:48:04 435.800 - 435.900 CW/SSB, 435.910 FM
SO-50 17 Sep 07:46:45 07:51:17 85° 299° (WNW) 07:55:43 436.795 FM
SO-67 17 Sep 07:55:30 07:58:22 23° 252° (WSW) 08:01:11 435.3500 MHz FM
UOSAT-12 17 Sep 08:01:45 08:03:24 12° 134° (SE) 08:05:02 437.025 FM, 437.400 FM
RS-15 17 Sep 08:30:28 08:36:27 14° 190° (S) 08:42:24 29.354 - 29.394 USB, Beacon 29.352 USB
HO-68 17 Sep 08:31:54 08:38:33 39° 81° (E) 08:45:06 435.675 MHz FM
MaSat-1 17 Sep 08:46:28 08:48:34 26° 243° (WSW) 08:50:43 437.345 MHz
